Weather History for KSYF - May, 2013

Change the Weather History Date:

Sunday, May 19, 2013

  Actual Average Record
Temperature  
Mean Temperature 62 °F -  
Max Temperature 70 °F 76 °F 88 °F (2014)
Min Temperature 53 °F 48 °F 48 °F (2014)
Degree Days  
Heating Degree Days 4    
Growing Degree Days 12 (Base 50)    
Moisture  
Dew Point 48 °F    
Average Humidity 61    
Maximum Humidity 82    
Minimum Humidity 39    
Precipitation  
Precipitation 0.00 in - - ()
Sea Level Pressure  
Sea Level Pressure 29.74 in    
Wind  
Wind Speed 13 mph (NW)    
Max Wind Speed 24 mph    
Max Gust Speed 36 mph    
Visibility 10 miles    
Events Rain    
Averages and records for this station are not official NWS values.
T = Trace of Precipitation, MM = Missing Value Source: NWS Daily Summary

Daily Weather History Graph

Daily Weather History Graph

Search for Another Location

Airport or City:

Trip Planner

Search our weather history database for the weather conditions in past years. The results will help you decide how hot, cold, wet, or windy it might be!

Date:

Astronomy

May. 19, 2013 Rise Set
Actual Time 6:28 AM CDT 8:59 PM CDT
Civil Twilight 5:57 AM CDT 9:29 PM CDT
Nautical Twilight 5:19 AM CDT 10:08 PM CDT
Astronomical Twilight 4:36 AM CDT 10:51 PM CDT
Moon 3:06 PM CDT (5/19) 2:52 AM CDT (5/19)
Length of Visible Light 15h 32m
Length of Day
14h 30m
Waxing Gibbous, 65% of the Moon is Illuminated
May 19
Waxing Gibbous
May 24
Full
May 31
Last Quarter
Jun 8
New
Jun 16
First Quarter

Hourly Weather History & Observations

Time (CDT) Temp. Dew Point Humidity Pressure Visibility Wind Dir Wind Speed Gust Speed Precip Events Conditions
12:15 AM 63.9 °F 47.5 °F 55% 29.73 in 10.0 mi NNE 18.4 mph - N/A   Overcast
12:35 AM 63.5 °F 48.0 °F 57% 29.74 in 10.0 mi NNE 12.7 mph - N/A   Overcast
12:55 AM 63.1 °F 47.8 °F 57% 29.76 in 10.0 mi North 8.1 mph - N/A   Overcast
1:15 AM 64.4 °F 46.6 °F 52% 29.77 in 10.0 mi North 11.5 mph - N/A   Overcast
1:35 AM 64.4 °F 46.8 °F 53% 29.78 in 10.0 mi NNW 11.5 mph - N/A   Overcast
1:55 AM 63.1 °F 47.7 °F 57% 29.74 in 10.0 mi North 17.3 mph - N/A   Overcast
2:15 AM 61.9 °F 48.9 °F 62% 29.77 in 10.0 mi NNW 13.8 mph - N/A   Mostly Cloudy
2:35 AM 61.5 °F 49.6 °F 65% 29.77 in 10.0 mi NNW 13.8 mph - N/A   Overcast
2:55 AM 61.2 °F 50.0 °F 67% 29.76 in 10.0 mi NNW 12.7 mph 17.3 mph N/A   Overcast
3:35 AM 60.3 °F 50.4 °F 70% 29.75 in 10.0 mi North 10.4 mph - N/A   Overcast
3:55 AM 59.7 °F 50.7 °F 72% 29.74 in 10.0 mi North 12.7 mph - N/A   Overcast
4:15 AM 59.0 °F 50.9 °F 74% 29.74 in 10.0 mi NNW 10.4 mph - N/A   Mostly Cloudy
4:35 AM 59.0 °F 50.9 °F 74% 29.74 in 10.0 mi North 6.9 mph - N/A   Mostly Cloudy
4:55 AM 59.2 °F 51.3 °F 75% 29.78 in 10.0 mi West 12.7 mph - N/A   Overcast
5:15 AM 61.7 °F 48.9 °F 63% 29.76 in 10.0 mi WNW 20.7 mph 28.8 mph N/A Rain Light Rain
5:35 AM 57.0 °F 50.0 °F 77% 29.77 in 7.0 mi WNW 23.0 mph 33.4 mph N/A Rain Light Rain
5:55 AM 56.7 °F 50.0 °F 78% 29.78 in 10.0 mi NW 6.9 mph - N/A Rain Rain
6:15 AM 56.1 °F 49.8 °F 79% 29.72 in 10.0 mi North 17.3 mph - N/A Rain Rain
6:35 AM 55.4 °F 50.0 °F 82% 29.71 in 10.0 mi North 10.4 mph - N/A Rain Light Rain
6:55 AM 55.6 °F 50.2 °F 82% 29.70 in 10.0 mi NNE 11.5 mph - N/A   Scattered Clouds
7:15 AM 55.4 °F 49.6 °F 81% 29.68 in 10.0 mi North 9.2 mph - N/A   Scattered Clouds
7:35 AM 55.8 °F 49.5 °F 79% 29.68 in 10.0 mi North 6.9 mph - N/A   Clear
7:55 AM 56.3 °F 50.0 °F 79% 29.69 in 10.0 mi North 5.8 mph - N/A   Clear
8:15 AM 56.7 °F 50.5 °F 80% 29.72 in 10.0 mi WNW 6.9 mph - N/A   Scattered Clouds
8:35 AM 57.4 °F 51.8 °F 82% 29.74 in 10.0 mi West 9.2 mph - N/A   Mostly Cloudy
8:55 AM 59.0 °F 52.2 °F 78% 29.74 in 10.0 mi WNW 12.7 mph - N/A   Overcast
9:15 AM 59.2 °F 52.0 °F 77% 29.74 in 10.0 mi WNW 4.6 mph - N/A   Scattered Clouds
9:35 AM 61.7 °F 52.7 °F 72% 29.74 in 10.0 mi NW 9.2 mph - N/A   Clear
9:55 AM 62.8 °F 51.3 °F 66% 29.74 in 10.0 mi NW 8.1 mph - N/A   Scattered Clouds
10:15 AM 64.8 °F 51.8 °F 63% 29.74 in 10.0 mi NNW 8.1 mph - N/A   Scattered Clouds
10:35 AM 65.7 °F 50.5 °F 58% 29.74 in 10.0 mi NW 9.2 mph - N/A   Clear
10:55 AM 66.9 °F 51.3 °F 57% 29.74 in 10.0 mi WNW 8.1 mph - N/A   Scattered Clouds
11:15 AM 67.6 °F 51.1 °F 55% 29.74 in 10.0 mi NW 6.9 mph - N/A   Scattered Clouds
11:35 AM 68.4 °F 50.2 °F 52% 29.73 in 10.0 mi WNW 11.5 mph - N/A   Scattered Clouds
11:55 AM 67.6 °F 49.3 °F 52% 29.73 in 10.0 mi NW 12.7 mph 17.3 mph N/A   Mostly Cloudy
12:15 PM 68.9 °F 49.6 °F 50% 29.73 in 10.0 mi NW 12.7 mph 17.3 mph N/A   Mostly Cloudy
12:35 PM 70.2 °F 48.9 °F 47% 29.73 in 10.0 mi NW 13.8 mph 25.3 mph N/A   Scattered Clouds
12:55 PM 67.6 °F 51.4 °F 56% 29.74 in 10.0 mi NW 17.3 mph 21.9 mph N/A   Scattered Clouds
1:15 PM 68.7 °F 50.2 °F 52% 29.74 in 10.0 mi NW 13.8 mph - N/A   Scattered Clouds
1:35 PM 68.7 °F 50.2 °F 52% 29.73 in 10.0 mi NW 16.1 mph 24.2 mph N/A   Scattered Clouds
1:55 PM 67.6 °F 50.5 °F 54% 29.73 in 10.0 mi NW 17.3 mph 27.6 mph N/A   Scattered Clouds
2:15 PM 67.3 °F 49.3 °F 52% 29.74 in 10.0 mi NNW 20.7 mph 29.9 mph N/A   Scattered Clouds
2:35 PM 67.6 °F 47.1 °F 48% 29.74 in 10.0 mi NW 19.6 mph 27.6 mph N/A   Clear
2:55 PM 66.0 °F 45.0 °F 47% 29.74 in 10.0 mi NNW 24.2 mph 35.7 mph N/A   Clear
3:15 PM 65.3 °F 45.5 °F 49% 29.75 in 10.0 mi NNW 20.7 mph 28.8 mph N/A   Clear
3:35 PM 66.2 °F 44.6 °F 46% 29.74 in 10.0 mi NW 19.6 mph 23.0 mph N/A   Clear
3:55 PM 64.6 °F 45.1 °F 49% 29.74 in 10.0 mi NNW 11.5 mph 20.7 mph N/A   Clear
4:15 PM 65.8 °F 45.9 °F 48% 29.73 in 10.0 mi NNW 15.0 mph 24.2 mph N/A   Clear
4:35 PM 66.6 °F 46.4 °F 48% 29.72 in 10.0 mi NNW 13.8 mph 19.6 mph N/A   Clear
4:55 PM 67.8 °F 46.8 °F 47% 29.72 in 10.0 mi North 13.8 mph 21.9 mph N/A   Clear
5:15 PM 66.2 °F 46.6 °F 49% 29.72 in 10.0 mi NNW 9.2 mph 17.3 mph N/A   Clear
5:35 PM 66.0 °F 45.9 °F 48% 29.73 in 10.0 mi NNW 11.5 mph - N/A   Clear
5:55 PM 66.0 °F 45.7 °F 48% 29.74 in 10.0 mi NW 15.0 mph 18.4 mph N/A   Scattered Clouds
6:15 PM 68.2 °F 44.1 °F 42% 29.74 in 10.0 mi WNW 18.4 mph 23.0 mph N/A   Mostly Cloudy
6:35 PM 67.6 °F 45.0 °F 44% 29.72 in 10.0 mi NW 18.4 mph 24.2 mph N/A   Scattered Clouds
6:55 PM 65.7 °F 45.5 °F 48% 29.71 in 10.0 mi NW 16.1 mph 24.2 mph N/A   Clear
7:15 PM 65.8 °F 45.5 °F 48% 29.71 in 10.0 mi West 12.7 mph - N/A   Clear
7:35 PM 66.0 °F 45.1 °F 47% 29.72 in 10.0 mi West 19.6 mph - N/A   Scattered Clouds
7:55 PM 64.9 °F 39.2 °F 39% 29.73 in 10.0 mi WSW 19.6 mph 26.5 mph N/A   Scattered Clouds
8:15 PM 62.6 °F 40.3 °F 44% 29.74 in 10.0 mi West 15.0 mph - N/A   Scattered Clouds
8:35 PM 61.9 °F 42.1 °F 48% 29.74 in 10.0 mi WNW 10.4 mph - N/A   Scattered Clouds
8:55 PM 60.8 °F 42.3 °F 50% 29.74 in 10.0 mi WNW 10.4 mph - N/A   Scattered Clouds
9:35 PM 59.7 °F 44.6 °F 57% 29.75 in 10.0 mi NW 6.9 mph - N/A   Clear
9:55 PM 59.2 °F 45.7 °F 61% 29.75 in 10.0 mi NW 8.1 mph - N/A   Clear
10:15 PM 58.5 °F 46.4 °F 64% 29.77 in 10.0 mi NW 8.1 mph - N/A   Clear
10:35 PM 57.4 °F 46.9 °F 68% 29.78 in 10.0 mi NW 6.9 mph - N/A   Clear
10:55 PM 56.8 °F 47.3 °F 70% 29.79 in 10.0 mi NW 5.8 mph - N/A   Clear
11:15 PM 54.7 °F 47.3 °F 76% 29.78 in 10.0 mi West 4.6 mph - N/A   Clear
11:35 PM 53.2 °F 47.5 °F 81% 29.77 in 10.0 mi NW 5.8 mph - N/A   Clear
11:55 PM 53.6 °F 48.2 °F 82% 29.76 in 10.0 mi WNW 4.6 mph - N/A   Clear